FW4300 Weather Reports


Display with metric or nautical units.
time (UTC)temp
F
wind
direction
speed
MPH
gust
MPH
rain 1hr
in
rain 24hr
in
rain mn
in
humidity
%
barometer
mb
20260504050533 77 197 0.0 0.0 0.00 0.00 0.00 66 1017.5
20260504045531 76 208 0.0 0.0 0.00 0.00 0.00 66 1017.5
20260504045031 76 162 0.0 0.0 0.00 0.00 0.00 66 1017.6
20260504044540 76 180 0.0 0.0 0.00 0.00 0.00 66 1017.6
20260504044033 76 179 0.0 0.0 0.00 0.00 0.00 66 1017.6
20260504043530 76 202 0.0 0.0 0.00 0.00 0.00 66 1017.6
20260504043034 77 158 0.0 0.0 0.00 0.00 0.00 66 1017.7
20260504042529 77 180 0.0 0.0 0.00 0.00 0.00 66 1017.8
20260504042029 77 200 0.0 0.0 0.00 0.00 0.00 66 1017.9
20260504041526 77 186 0.0 0.0 0.00 0.00 0.00 66 1018.0
20260504041026 77 141 0.0 0.0 0.00 0.00 0.00 66 1018.1
20260504040528 77 204 0.0 0.0 0.00 0.00 0.00 66 1018.2
20260504040025 77 108 0.0 0.0 0.00 0.00 0.00 66 1018.2
20260504035525 77 128 0.0 0.0 0.00 0.00 0.00 66 1018.4
20260504035024 77 203 0.0 0.0 0.00 0.00 0.00 66 1018.4
20260504034533 77 221 0.0 0.0 0.00 0.00 0.00 66 1018.4
20260504034024 77 206 0.0 0.0 0.00 0.00 0.00 66 1018.5
20260504033524 77 169 0.0 0.0 0.00 0.00 0.00 66 1018.4
20260504033035 77 212 0.0 0.0 0.00 0.00 0.00 66 1018.4
20260504032524 77 128 0.0 0.0 0.00 0.00 0.00 66 1018.3
20260504032026 77 165 0.0 0.0 0.00 0.00 0.00 66 1018.4
20260504031524 77 133 0.0 0.0 0.00 0.00 0.00 66 1018.3
20260504031023 77 148 0.0 0.0 0.00 0.00 0.00 66 1018.3
20260504030523 77 136 0.0 0.0 0.00 0.00 0.00 66 1018.2
20260504030024 77 111 0.0 0.0 0.00 0.00 0.00 66 1018.2
20260504025523 77 136 0.0 0.0 0.00 0.00 0.00 66 1018.2
20260504025024 77 152 0.0 0.0 0.00 0.00 0.00 66 1018.2
20260504024524 77 171 0.0 0.0 0.00 0.00 0.00 66 1018.2
20260504024023 77 138 0.0 0.0 0.00 0.00 0.00 66 1018.1
20260504023525 77 131 0.0 0.0 0.00 0.00 0.00 66 1018.3
20260504023023 77 124 0.0 0.0 0.00 0.00 0.00 66 1018.1
20260504022523 77 156 0.0 0.0 0.00 0.00 0.00 66 1018.0
20260504022022 77 121 0.0 0.0 0.00 0.00 0.00 66 1018.0
20260504021531 77 119 0.0 0.0 0.00 0.00 0.00 66 1018.0
20260504021021 77 171 0.0 0.0 0.00 0.00 0.00 66 1017.9
20260504020522 77 154 0.0 0.0 0.00 0.00 0.00 66 1017.9
20260504020024 77 166 0.0 0.0 0.00 0.00 0.00 66 1017.9
20260504015521 77 122 0.0 0.0 0.00 0.00 0.00 66 1017.9
20260504015020 77 113 0.0 0.0 0.00 0.00 0.00 66 1017.9
20260504014521 77 174 0.0 0.0 0.00 0.00 0.00 66 1017.9
20260504014020 77 163 0.0 0.0 0.00 0.00 0.00 66 1017.9
20260504013525 78 162 0.0 0.0 0.00 0.00 0.00 66 1018.0
20260504013029 78 135 0.0 0.0 0.00 0.00 0.00 66 1017.9
20260504012521 78 131 0.0 0.0 0.00 0.00 0.00 65 1017.8
20260504012022 78 153 0.0 0.0 0.00 0.00 0.00 65 1017.8
20260504011520 78 127 0.0 0.0 0.00 0.00 0.00 65 1017.8
20260504011020 78 117 0.0 0.0 0.00 0.00 0.00 65 1017.7
20260504010522 78 176 0.0 0.0 0.00 0.00 0.00 65 1017.7
20260504010021 78 139 0.0 0.0 0.00 0.00 0.00 65 1017.6
20260504005519 78 134 0.0 0.0 0.00 0.00 0.00 65 1017.7
20260504005019 78 126 0.0 0.0 0.00 0.00 0.00 65 1017.6
20260504004519 78 182 0.0 0.0 0.00 0.00 0.00 65 1017.5
20260504004019 79 101 0.0 0.0 0.00 0.00 0.00 65 1017.4
20260504003519 79 141 0.0 0.0 0.00 0.00 0.00 65 1017.5
20260504003019 78 150 0.0 0.0 0.00 0.00 0.00 65 1017.4
20260504002519 79 143 0.0 0.0 0.00 0.00 0.00 65 1017.4
20260504002018 79 155 0.0 0.0 0.00 0.00 0.00 65 1017.4
20260504001518 79 134 0.0 0.0 0.00 0.00 0.00 65 1017.3
20260504001018 79 148 0.0 0.0 0.00 0.00 0.00 65 1017.3
20260504000521 79 129 0.0 0.0 0.00 0.00 0.00 65 1017.2
20260504000018 79 129 0.0 0.0 0.00 0.00 0.00 65 1017.2
20260503235516 79 99 0.0 0.0 0.00 0.00 0.00 65 1017.0
20260503235017 79 142 0.0 0.0 0.00 0.00 0.00 65 1017.0
20260503234517 79 126 0.0 0.0 0.00 0.00 0.00 64 1017.0
20260503234020 79 145 0.0 0.0 0.00 0.00 0.00 64 1016.9
20260503233517 79 127 0.0 0.0 0.00 0.00 0.00 64 1016.9
20260503233016 79 132 0.0 0.0 0.00 0.00 0.00 64 1016.9
20260503232519 79 133 0.0 0.0 0.00 0.00 0.00 64 1016.8
20260503232020 79 113 0.0 0.0 0.00 0.00 0.00 64 1016.7
20260503231515 79 84 0.0 0.0 0.00 0.00 0.00 64 1016.7
20260503231016 80 81 0.0 0.0 0.00 0.00 0.00 63 1016.6
20260503230515 80 110 0.0 0.0 0.00 0.00 0.00 63 1016.6
20260503230015 80 169 0.0 0.0 0.00 0.00 0.00 62 1016.6
20260503225514 80 159 0.0 0.0 0.00 0.00 0.00 62 1016.6
20260503225014 81 136 0.0 0.0 0.00 0.00 0.00 62 1016.6
20260503224514 81 134 0.0 0.0 0.00 0.00 0.00 61 1016.5
20260503224023 82 207 0.0 0.0 0.00 0.00 0.00 61 1016.6
20260503223516 82 142 0.0 0.0 0.00 0.00 0.00 60 1016.5
20260503223014 83 198 0.0 0.0 0.00 0.00 0.00 60 1016.6
20260503222513 83 161 0.0 0.0 0.00 0.00 0.00 60 1016.5
20260503222013 83 188 0.0 0.0 0.00 0.00 0.00 60 1016.5
20260503221518 83 155 0.0 0.0 0.00 0.00 0.00 59 1016.5
20260503221012 83 150 0.0 0.0 0.00 0.00 0.00 59 1016.4
20260503220512 83 162 0.0 0.0 0.00 0.00 0.00 58 1016.4
20260503220012 84 103 0.0 0.0 0.00 0.00 0.00 57 1016.4
20260503215513 84 141 0.0 0.0 0.00 0.00 0.00 57 1016.3
20260503215013 84 178 0.0 0.0 0.00 0.00 0.00 57 1016.3
20260503214513 84 151 0.0 0.0 0.00 0.00 0.00 57 1016.3
20260503214017 84 175 0.0 0.0 0.00 0.00 0.00 57 1016.3
20260503213510 84 174 0.0 0.0 0.00 0.00 0.00 57 1016.3
20260503213025 84 224 0.0 0.0 0.00 0.00 0.00 55 1016.3
20260503212510 84 127 0.0 0.0 0.00 0.00 0.00 55 1016.2
20260503212010 84 129 0.0 0.0 0.00 0.00 0.00 54 1016.3
20260503211515 84 210 0.0 0.0 0.00 0.00 0.00 55 1016.1
20260503211011 84 123 0.0 0.0 0.00 0.00 0.00 56 1016.1
20260503210609 84 132 0.0 0.0 0.00 0.00 0.00 57 1016.0
20260503210008 84 71 0.0 0.0 0.00 0.00 0.00 57 1016.0
20260503205507 84 96 0.0 0.0 0.00 0.00 0.00 56 1016.0
20260503205012 84 147 0.0 0.0 0.00 0.00 0.00 57 1016.0
20260503204507 84 125 0.0 0.0 0.00 0.00 0.00 57 1016.0
20260503204008 84 165 0.0 0.0 0.00 0.00 0.00 56 1016.1
20260503203506 85 129 0.0 0.0 0.00 0.00 0.00 56 1016.2
20260503203005 85 138 0.0 0.0 0.00 0.00 0.00 56 1016.1
20260503202505 85 119 0.0 0.0 0.00 0.00 0.00 56 1016.1
20260503202005 85 103 0.0 0.0 0.00 0.00 0.00 55 1016.2
20260503201507 85 125 0.0 0.0 0.00 0.00 0.00 55 1016.2
20260503201002 85 156 0.0 0.0 0.00 0.00 0.00 56 1016.2
20260503200503 85 201 0.0 0.0 0.00 0.00 0.00 56 1016.3
20260503200004 85 118 0.0 0.0 0.00 0.00 0.00 56 1016.4
20260503195501 85 177 0.0 0.0 0.00 0.00 0.00 56 1016.3
20260503195001 85 160 0.0 0.0 0.00 0.00 0.00 55 1016.4
20260503194601 85 88 0.0 0.0 0.00 0.00 0.00 55 1016.5
20260503194100 85 94 0.0 0.0 0.00 0.00 0.00 55 1016.5
20260503193600 85 144 0.0 0.0 0.00 0.00 0.00 54 1016.5
20260503193121 86 122 0.0 0.0 0.00 0.00 0.00 54 1016.5
20260503192558 86 108 0.0 0.0 0.00 0.00 0.00 54 1016.6
20260503192102 86 165 0.0 0.0 0.00 0.00 0.00 53 1016.6
20260503191601 86 155 0.0 0.0 0.00 0.00 0.00 55 1016.6
20260503191059 86 133 0.0 0.0 0.00 0.00 0.00 54 1016.6
20260503190556 86 168 0.0 0.0 0.00 0.00 0.00 55 1016.7
20260503190059 86 134 0.0 0.0 0.00 0.00 0.00 55 1016.8
20260503185555 86 122 0.0 0.0 0.00 0.00 0.00 54 1016.9
20260503185055 86 141 0.0 0.0 0.00 0.00 0.00 54 1016.8
20260503184557 86 126 0.0 0.0 0.00 0.00 0.00 54 1016.9
20260503184057 86 103 0.0 0.0 0.00 0.00 0.00 53 1017.0
20260503183552 86 152 0.0 0.0 0.00 0.00 0.00 53 1017.0
20260503183056 86 108 0.0 0.0 0.00 0.00 0.00 54 1017.2
20260503182556 86 123 0.0 0.0 0.00 0.00 0.00 54 1017.2
20260503182053 86 137 0.0 0.0 0.00 0.00 0.00 52 1017.1
20260503181620 87 129 0.0 0.0 0.00 0.00 0.00 53 1017.2
20260503181053 87 156 0.0 0.0 0.00 0.00 0.00 53 1017.2
20260503180554 86 142 0.0 0.0 0.00 0.00 0.00 52 1017.3
20260503180113 87 233 0.0 0.0 0.00 0.00 0.00 52 1017.4
20260503175554 87 108 0.0 0.0 0.00 0.00 0.00 53 1017.4
20260503175051 87 204 0.0 0.0 0.00 0.00 0.00 52 1017.4
20260503174556 86 164 0.0 0.0 0.00 0.00 0.00 52 1017.5
20260503174050 86 173 0.0 0.0 0.00 0.00 0.00 52 1017.5
20260503173550 87 219 0.0 0.0 0.00 0.00 0.00 51 1017.6
20260503173056 87 224 0.0 0.0 0.00 0.00 0.00 52 1017.5
20260503172553 86 237 0.0 0.0 0.00 0.00 0.00 53 1017.7
20260503172048 87 195 0.0 0.0 0.00 0.00 0.00 52 1017.8
20260503171549 87 184 0.0 0.0 0.00 0.00 0.00 52 1017.8
20260503171049 86 150 0.0 0.0 0.00 0.00 0.00 51 1017.8
20260503170548 86 214 0.0 0.0 0.00 0.00 0.00 53 1018.0
20260503150538 84 131 0.0 0.0 0.00 0.00 0.00 60 1019.0
20260503131028 83 135 0.0 0.0 0.00 0.00 0.00 63 1019.0
20260503130527 82 138 0.0 0.0 0.00 0.00 0.00 64 1019.1
20260503110512 74 282 0.0 0.0 0.00 0.00 0.00 75 1018.4
20260503100128 0 0.0 0.0 0.00 0.00 0.00 1017.8
20260503081536 73 300 0.0 0.0 0.00 0.00 0.00 75 1017.1
20260503081032 73 300 0.0 0.0 0.00 0.00 0.00 75 1017.1
20260503080531 73 300 0.0 0.0 0.00 0.00 0.00 76 1017.1
20260503072529 73 335 0.0 0.0 0.00 0.00 0.00 74 1017.4
20260503072025 73 338 0.0 0.0 0.00 0.00 0.00 74 1017.4
20260503071529 73 2 0.0 0.0 0.00 0.00 0.00 73 1017.5
20260503071024 73 283 0.0 0.0 0.00 0.00 0.00 72 1017.6
20260503070523 73 286 0.0 0.0 0.00 0.00 0.00 72 1017.5
20260503055014 74 313 0.0 0.0 0.00 0.00 0.00 72 1018.1